Volver al catálogo

FENGYUN 1C DEB

ActivoSSO
NORAD 37906·DEBRIS·🇨🇳 China

Lanzado May 10, 1999 desde Taiyuan Satellite Launch Center

Loading…

Próximos Pases (próximas 24 horas)

TLE

EnvejeciendoSource: Space-Track

Época: Sep 4, 2026, 09:13 UTC

1 37906U 99025ENF 26247.38455071  .00000123  00000-0  14419-3 0  9992
2 37906  99.5759 297.1806 0163274  50.4474  14.0547 13.81078273631226

Sigue FENGYUN 1C DEB en tiempo real con AllMySat

Download on the App Store